Ord, NE

9:31 AM CDT on April 23, 2017 (GMT -0500)
Sharp

Weather History for KODX - October, 2012

Change the Weather History Date:

Wednesday, October 10, 2012

  Actual Average Record
Temperature  
Mean Temperature 45 °F 52 °F  
Max Temperature 67 °F 66 °F 80 °F (2015)
Min Temperature 22 °F 38 °F 22 °F (2012)
Degree Days  
Heating Degree Days 20 13  
Month to date heating degree days 187 115  
Since 1 July heating degree days 329 252  
Cooling Degree Days 0 0  
Month to date cooling degree days 0 6  
Year to date cooling degree days 1220 844  
Moisture  
Dew Point 27 °F    
Average Humidity 57    
Maximum Humidity 88    
Minimum Humidity 26    
Precipitation  
Precipitation 0.00 in 0.06 in 1.43 in (1961)
Month to date precipitation 0.01 0.70  
Year to date precipitation 11.06 22.05  
Sea Level Pressure  
Sea Level Pressure 30.13 in    
Wind  
Wind Speed 7 mph (SSW)    
Max Wind Speed 21 mph    
Max Gust Speed 28 mph    
Visibility 10 miles    
Events      
T = Trace of Precipitation, MM = Missing Value Source: NWS Daily Summary

Daily Weather History Graph

Daily Weather History Graph

Search for Another Location

Airport or City:

Trip Planner

Search our weather history database for the weather conditions in past years. The results will help you decide how hot, cold, wet, or windy it might be!

Date:

Astronomy

Oct. 10, 2012 Rise Set
Actual Time 7:42 AM CDT 7:01 PM CDT
Civil Twilight 7:15 AM CDT 7:29 PM CDT
Nautical Twilight 6:42 AM CDT 8:01 PM CDT
Astronomical Twilight 6:10 AM CDT 8:33 PM CDT
Moon 2:16 AM CDT (10/10) 4:08 PM CDT (10/10)
Length of Visible Light 12h 14m
Length of Day
11h 18m
Waning Crescent, 27% of the Moon is Illuminated
Oct 10
Waning Crescent
Oct 15
New
Oct 21
First Quarter
Oct 29
Full
Nov 6
Last Quarter

Hourly Weather History & Observations

Time (CDT) Temp. Windchill Dew Point Humidity Pressure Visibility Wind Dir Wind Speed Gust Speed Precip Events Conditions
12:53 AM 30.9 °F 26.2 °F 21.9 °F 69% 30.21 in 10.0 mi WNW 4.6 mph - N/A   Clear
1:53 AM 28.0 °F 22.8 °F 21.0 °F 75% 30.22 in 10.0 mi WNW 4.6 mph - N/A   Clear
2:53 AM 26.1 °F - 19.9 °F 78% 30.22 in 10.0 mi Calm Calm - N/A   Clear
3:53 AM 25.0 °F - 19.9 °F 81% 30.22 in 10.0 mi Calm Calm - N/A   Clear
4:53 AM 24.1 °F - 19.9 °F 84% 30.22 in 10.0 mi Calm Calm - N/A   Clear
5:53 AM 24.1 °F - 19.0 °F 81% 30.24 in 10.0 mi Calm Calm - N/A   Clear
6:53 AM 28.0 °F 22.8 °F 21.9 °F 78% 30.22 in 10.0 mi SSW 4.6 mph - N/A   Clear
7:53 AM 25.0 °F - 21.0 °F 85% 30.25 in 9.0 mi Calm Calm - N/A   Scattered Clouds
8:53 AM 33.1 °F - 25.0 °F 72% 30.25 in 10.0 mi Calm Calm - N/A   Mostly Cloudy
9:53 AM 41.0 °F 39.0 °F 26.1 °F 55% 30.23 in 10.0 mi SSE 3.5 mph - N/A   Clear
10:53 AM 48.9 °F - 28.0 °F 44% 30.21 in 10.0 mi South 4.6 mph - N/A   Clear
11:53 AM 57.0 °F - 30.9 °F 37% 30.18 in 10.0 mi SW 8.1 mph - N/A   Clear
12:53 PM 62.1 °F - 30.9 °F 31% 30.14 in 10.0 mi SSW 16.1 mph - N/A   Clear
1:53 PM 64.0 °F - 30.9 °F 29% 30.10 in 10.0 mi WSW 13.8 mph 21.9 mph N/A   Clear
2:53 PM 66.0 °F - 32.0 °F 28% 30.06 in 10.0 mi SW 10.4 mph 25.3 mph N/A   Clear
3:53 PM 66.0 °F - 30.9 °F 27% 30.04 in 10.0 mi SSW 18.4 mph 27.6 mph N/A   Clear
4:53 PM 66.0 °F - 30.9 °F 27% 30.01 in 10.0 mi SSW 17.3 mph 26.5 mph N/A   Clear
5:53 PM 64.9 °F - 32.0 °F 29% 29.99 in 10.0 mi SSW 15.0 mph - N/A   Clear
6:53 PM 61.0 °F - 32.0 °F 34% 29.99 in 10.0 mi South 12.7 mph - N/A   Clear
7:53 PM 57.0 °F - 32.0 °F 39% 30.00 in 10.0 mi SSW 8.1 mph - N/A   Clear
8:53 PM 53.1 °F - 30.9 °F 43% 30.01 in 7.0 mi South 6.9 mph - N/A   Clear
9:53 PM 51.1 °F - 30.0 °F 44% 30.01 in 10.0 mi SSW 5.8 mph - N/A   Clear
10:53 PM 46.0 °F 43.9 °F 30.0 °F 54% 30.01 in 10.0 mi South 4.6 mph - N/A   Clear
11:53 PM 48.0 °F - 30.0 °F 50% 29.99 in 10.0 mi South 5.8 mph - N/A   Clear